QPF
0.00 0.00 0.00 0.00 0.00 0.00 0.00 0.00 0.00 0.00 0.00 0.00 0.00 0.00 0.00 0.00 0.00 0.00 0.00 0.00 0.00 0.00 0.00 0.00 0.00 0.00 0.00 0.00 0.00 0.00 0.00 0.00 0.00 0.00 0.00 0.00 0.00 0.00 0.00 0.00 0.00 0.00 0.00 0.00 0.00
0.00 0.00 0.00 0.00 0.00 0.00 0.00 0.00 0.00 0.00 0.00 0.00 0.00 0.00 0.00 0.00 0.00 0.00 0.00 0.00 0.00 0.00 0.00 0.00 0.00 0.00 0.00 0.00 0.00 0.00 0.00 0.00 0.00 0.00 0.00 0.00 0.00 0.00 0.00 0.00 0.00 0.00 0.00 0.00 0.00
0.00 0.00 0.00 0.00 0.00 0.00 0.00 0.00 0.00 0.00 0.00 0.00 0.00 0.00 0.00 0.00 0.00 0.00 0.00 0.00 0.00 0.00 0.00 0.00 0.00 0.00 0.00 0.00 0.00 0.00 0.00 0.00 0.00 0.00 0.00 0.00 0.00 0.00 0.00 0.00 0.00 0.00 0.00 0.00 0.00
0.00 0.00 0.00 0.00 0.00 0.00 0.00 0.00 0.00 0.00 0.00 0.00 0.00 0.00 0.00 0.00 0.00 0.00 0.00 0.00 0.00 0.00 0.00 0.00 0.00 0.00 0.00 0.00 0.00 0.00 0.00 0.00 0.00 0.00 0.00 0.00 0.00 0.00 0.00 0.00 0.00 0.00 0.00 0.00 0.00
0.00 0.00 0.00 0.00 0.00 0.00 0.00 0.00 0.00 0.00 0.00 0.00 0.00 0.00 0.00 0.00 0.00 0.00 0.00 0.00 0.00 0.00 0.00 0.00 0.00 0.00 0.00 0.00 0.00 0.00 0.00 0.00 0.00 0.00 0.00 0.00 0.00 0.00 0.00 0.00 0.00 0.00 0.00 0.00 0.00
0.00 0.00 0.00 0.00 0.00 0.00 0.00 0.00 0.00 0.00 0.00 0.00 0.00 0.00 0.00 0.00 0.00 0.00 0.00 0.00 0.00 0.00 0.00 0.00 0.00 0.00 0.00 0.00 0.00 0.00 0.00 0.00 0.00 0.00 0.00 0.00 0.00 0.00 0.00 0.00 0.00 0.00 0.00 0.00 0.00
0.00 0.00 0.00 0.00 0.00 0.00 0.00 0.00 0.00 0.00 0.00 0.00 0.00 0.00 0.00 0.00 0.00 0.00 0.00 0.00 0.00 0.00 0.00 0.00 0.00 0.00 0.00 0.00 0.00 0.00 0.00 0.00 0.00 0.00 0.00 0.00 0.00 0.00 0.00 0.00 0.00 0.00 0.00 0.00 0.00
0.00 0.00 0.00 0.00 0.00 0.00 0.00 0.00 0.00 0.00 0.00 0.00 0.00 0.00 0.00 0.00 0.00 0.00 0.00 0.00 0.00 0.00 0.00 0.00 0.00 0.00 0.00 0.00 0.00 0.00 0.00 0.00 0.00 0.00 0.00 0.00 0.00 0.00 0.00 0.00 0.00 0.00 0.00 0.00 0.00
0.00 0.00 0.00 0.00 0.00 0.00 0.00 0.00 0.00 0.00 0.00 0.00 0.00 0.00 0.00 0.00 0.00 0.00 0.00 0.00 0.00 0.00 0.00 0.00 0.00 0.00 0.00 0.00 0.00 0.00 0.00 0.00 0.00 0.00 0.00 0.00 0.00 0.00 0.00 0.00 0.00 0.00 0.00 0.00 0.00
0.00 0.00 0.00 0.00 0.00 0.00 0.00 0.00 0.00 0.00 0.00 0.00 0.00 0.00 0.00 0.00 0.00 0.00 0.00 0.00 0.00 0.00 0.00 0.00 0.00 0.00 0.00 0.00 0.00 0.00 0.00 0.00 0.00 0.00 0.00 0.00 0.00 0.00 0.00 0.00 0.00 0.00 0.00 0.00 0.00
0.00 0.00 0.00 0.00 0.00 0.00 0.00 0.00 0.00 0.00 0.00 0.00 0.00 0.00 0.00 0.00 0.00 0.00 0.00 0.00 0.00 0.00 0.00 0.00 0.00 0.00 0.00 0.00 0.00 0.00 0.00 0.00 0.00 0.00 0.00 0.00 0.00 0.00 0.00 0.00 0.00 0.00 0.00 0.00 0.00
0.00 0.00 0.00 0.00 0.00 0.00 0.00 0.00 0.00 0.00 0.00 0.00 0.00 0.00 0.00 0.00 0.00 0.00 0.00 0.00 0.00 0.00 0.00 0.00 0.00 0.00 0.00 0.00 0.00 0.00 0.00 0.00 0.00 0.00 0.00 0.00 0.00 0.00 0.00 0.00 0.00 0.00 0.00 0.00 0.00
0.00 0.00 0.00 0.00 0.00 0.00 0.00 0.00 0.00 0.00 0.00 0.00 0.00 0.00 0.00 0.00 0.00 0.00 0.00 0.00 0.00 0.00 0.00 0.00 0.00 0.00 0.00 0.00 0.00 0.00 0.00 0.00 0.00 0.00 0.00 0.00 0.00 0.00 0.00 0.00 0.00 0.00 0.00 0.00 0.00
0.00 0.00 0.00 0.00 0.00 0.00 0.00 0.00 0.00 0.00 0.00 0.00 0.00 0.00 0.00 0.00 0.00 0.00 0.00 0.00 0.00 0.00 0.00 0.00 0.00 0.00 0.00 0.00 0.00 0.00 0.00 0.00 0.00 0.00 0.00 0.00 0.00 0.00 0.00 0.00 0.00 0.00 0.00 0.00 0.00
0.00 0.00 0.00 0.00 0.00 0.00 0.00 0.00 0.00 0.00 0.00 0.00 0.00 0.00 0.00 0.00 0.00 0.00 0.00 0.00 0.00 0.00 0.00 0.00 0.00 0.00 0.00 0.00 0.00 0.00 0.00 0.00 0.00 0.00 0.00 0.00 0.00 0.00 0.00 0.00 0.00 0.00 0.00 0.00 0.00
0.00 0.00 0.00 0.00 0.00 0.00 0.00 0.00 0.00 0.00 0.00 0.00 0.00 0.00 0.00 0.00 0.00 0.00 0.00 0.00 0.00 0.00 0.00 0.00 0.00 0.00 0.00 0.00 0.00 0.00 0.00 0.00 0.00 0.00 0.00 0.00 0.00 0.00 0.00 0.00 0.00 0.00 0.00 0.00 0.00
0.00 0.00 0.00 0.00 0.00 0.00 0.00 0.00 0.00 0.00 0.00 0.00 0.00 0.00 0.00 0.00 0.00 0.00 0.00 0.00 0.00 0.00 0.00 0.00 0.00 0.00 0.00 0.00 0.00 0.00 0.00 0.00 0.00 0.00 0.00 0.00 0.00 0.00 0.00 0.00 0.00 0.00 0.00 0.00 0.00
0.00 0.00 0.00 0.00 0.00 0.00 0.00 0.01 0.00 0.00 0.00 0.00 0.00 0.00 0.00 0.00 0.00 0.00 0.00 0.00 0.00 0.00 0.00 0.00 0.00 0.00 0.00 0.00 0.00 0.00 0.00 0.00 0.00 0.00 0.00 0.00 0.00 0.00 0.00 0.00 0.00 0.00 0.00 0.00 0.00
0.00 0.00 0.00 0.00 0.00 0.00 0.02 0.01 0.00 0.00 0.00 0.00 0.00 0.00 0.00 0.00 0.00 0.00 0.00 0.00 0.00 0.00 0.00 0.00 0.00 0.00 0.00 0.00 0.00 0.00 0.00 0.00 0.00 0.00 0.00 0.00 0.00 0.00 0.00 0.00 0.00 0.00 0.00 0.00 0.00
0.00 0.00 0.00 0.00 0.00 0.01 0.01 0.00 0.00 0.00 0.00 0.00 0.00 0.00 0.00 0.00 0.00 0.00 0.00 0.00 0.00 0.00 0.00 0.00 0.00 0.00 0.00 0.00 0.00 0.00 0.00 0.00 0.00 0.00 0.00 0.00 0.00 0.00 0.00 0.00 0.00 0.00 0.00 0.00 0.00
0.00 0.00 0.00 0.00 0.01 0.02 0.00 0.00 0.00 0.00 0.00 0.00 0.00 0.00 0.00 0.00 0.01 0.01 0.00 0.00 0.00 0.00 0.00 0.00 0.02 0.00 0.00 0.00 0.00 0.00 0.00 0.00 0.00 0.00 0.00 0.01 0.00 0.00 0.00 0.00 0.00 0.00 0.00 0.00 0.00
0.00 0.00 0.00 0.00 0.01 0.01 0.00 0.00 0.00 0.00 0.00 0.00 0.00 0.00 0.00 0.01 0.01 0.01 0.00 0.00 0.00 0.00 0.00 0.01 0.03 0.00 0.00 0.00 0.00 0.00 0.00 0.00 0.01 0.01 0.01 0.01 0.01 0.00 0.00 0.00 0.00 0.00 0.00 0.00 0.00
0.00 0.00 0.00 0.01 0.00 0.00 0.00 0.00 0.00 0.00 0.00 0.00 0.00 0.00 0.00 0.00 0.01 0.00 0.00 0.00 0.00 0.00 0.01 0.02 0.03 0.02 0.00 0.00 0.00 0.00 0.00 0.00 0.01 0.02 0.01 0.03 0.02 0.00 0.00 0.00 0.00 0.00 0.00 0.00 0.00
0.00 0.00 0.00 0.01 0.01 0.00 0.00 0.00 0.00 0.00 0.00 0.00 0.00 0.00 0.00 0.00 0.00 0.00 0.00 0.00 0.00 0.00 0.00 0.01 0.01 0.02 0.01 0.00 0.00 0.01 0.01 0.01 0.02 0.03 0.02 0.02 0.01 0.00 0.00 0.00 0.00 0.00 0.00 0.00 0.00
0.00 0.00 0.00 0.00 0.00 0.00 0.00 0.00 0.00 0.00 0.00 0.00 0.00 0.00 0.00 0.00 0.00 0.00 0.00 0.00 0.00 0.00 0.00 0.01 0.01 0.00 0.00 0.00 0.00 0.00 0.00 0.00 0.00 0.00 0.01 0.00 0.00 0.00 0.00 0.00 0.00 0.00 0.00 0.00 0.00
0.00 0.00 0.00 0.00 0.00 0.00 0.00 0.00 0.00 0.00 0.00 0.00 0.00 0.00 0.00 0.00 0.00 0.00 0.00 0.00 0.00 0.00 0.00 0.01 0.01 0.00 0.00 0.00 0.00 0.00 0.00 0.00 0.00 0.00 0.00 0.00 0.00 0.00 0.00 0.00 0.00 0.00 0.00 0.00 0.00
0.00 0.00 0.00 0.00 0.00 0.00 0.00 0.00 0.00 0.00 0.00 0.00 0.00 0.00 0.00 0.00 0.00 0.00 0.00 0.00 0.00 0.00 0.00 0.00 0.01 0.01 0.00 0.00 0.00 0.00 0.00 0.00 0.00 0.00 0.00 0.00 0.00 0.00 0.00 0.00 0.00 0.00 0.00 0.00 0.00
MSLP
1019.25 1019.13 1018.98 1018.80 1018.67 1018.46 1018.30 1018.17 1017.96 1017.79 1017.55 1017.25 1017.01 1016.75 1016.51 1016.24 1015.73 1015.50 1014.04 1013.29 1013.41 1013.91 1014.09 1014.02 1013.92 1013.76 1013.70 1013.31 1013.33 1012.92 1011.59 1010.19 1009.62 1009.59 1009.41 1010.09 1010.37 1010.34 1010.42 1010.13 1009.58 1009.54 1009.53 1009.29 1010.05
1019.40 1019.22 1019.07 1018.88 1018.66 1018.48 1018.28 1018.14 1017.95 1017.75 1017.53 1017.28 1017.00 1016.68 1016.37 1016.16 1015.28 1014.05 1013.09 1013.30 1013.59 1013.78 1013.65 1013.45 1013.32 1013.52 1013.04 1013.12 1013.08 1012.64 1011.35 1010.21 1009.84 1009.81 1009.86 1010.05 1010.20 1010.17 1010.10 1009.49 1008.78 1008.53 1008.26 1008.65 1009.05
1019.37 1019.26 1019.00 1018.83 1018.65 1018.43 1018.21 1018.06 1017.85 1017.60 1017.38 1017.22 1016.94 1016.67 1016.36 1015.95 1014.80 1012.98 1013.23 1013.51 1013.78 1013.95 1013.36 1013.14 1013.06 1013.20 1012.89 1012.94 1012.58 1011.98 1011.27 1010.42 1010.25 1010.40 1010.48 1010.52 1010.44 1010.25 1010.03 1009.25 1008.62 1008.08 1007.81 1007.96 1008.20
1019.30 1019.13 1018.95 1018.77 1018.58 1018.30 1018.11 1017.94 1017.75 1017.51 1017.20 1017.01 1016.80 1016.56 1016.29 1015.57 1014.28 1013.44 1013.48 1013.72 1014.07 1013.79 1013.67 1013.42 1013.19 1012.92 1012.59 1012.24 1011.96 1012.18 1011.44 1011.23 1010.79 1010.91 1011.23 1010.74 1010.31 1010.14 1010.05 1009.18 1008.93 1008.46 1008.23 1007.98 1007.86
1019.22 1019.18 1018.89 1018.67 1018.48 1018.29 1018.06 1017.79 1017.53 1017.35 1017.12 1016.91 1016.72 1016.56 1016.10 1014.91 1013.32 1013.34 1013.67 1014.04 1014.05 1013.90 1013.39 1013.21 1012.95 1012.65 1012.30 1011.89 1012.22 1012.06 1011.51 1011.12 1011.09 1011.16 1011.47 1011.23 1010.40 1010.27 1009.33 1009.02 1008.42 1008.10 1007.80 1007.63 1007.51
1019.07 1019.07 1018.97 1018.69 1018.43 1018.14 1017.86 1017.62 1017.28 1017.02 1016.81 1016.60 1016.59 1016.64 1015.75 1014.31 1013.14 1013.14 1013.34 1013.86 1013.66 1013.74 1013.32 1013.15 1012.71 1012.62 1012.46 1012.27 1012.30 1011.80 1011.93 1011.36 1011.12 1011.09 1011.30 1011.17 1010.18 1010.15 1008.82 1008.43 1007.91 1007.61 1007.27 1007.02 1006.86
1018.96 1018.88 1018.80 1018.60 1018.36 1018.04 1017.69 1017.41 1017.08 1016.73 1016.49 1016.39 1016.35 1016.14 1015.14 1013.63 1013.20 1013.55 1013.73 1013.66 1013.76 1013.48 1013.28 1013.33 1013.50 1013.30 1012.70 1012.34 1012.30 1012.49 1011.93 1011.02 1010.38 1010.08 1010.70 1011.28 1009.84 1009.17 1008.31 1007.91 1007.57 1007.24 1006.69 1006.50 1006.59
1018.80 1018.70 1018.56 1018.42 1018.17 1017.92 1017.51 1017.10 1016.78 1016.53 1016.25 1016.02 1016.16 1015.88 1014.31 1013.85 1013.50 1013.80 1013.81 1013.96 1014.08 1014.18 1014.04 1014.10 1013.96 1013.63 1013.33 1013.09 1012.67 1012.24 1011.60 1010.44 1009.53 1010.16 1010.83 1011.53 1009.33 1008.53 1008.40 1008.16 1007.10 1006.67 1006.34 1006.34 1006.16
1018.70 1018.59 1018.48 1018.29 1018.05 1017.66 1017.27 1016.86 1016.63 1016.50 1016.30 1016.14 1015.91 1015.26 1013.84 1014.28 1013.87 1013.98 1013.83 1013.68 1014.17 1014.32 1014.42 1014.43 1014.11 1013.46 1013.32 1012.80 1011.97 1010.97 1010.17 1009.70 1009.34 1009.60 1010.53 1011.13 1009.82 1008.82 1008.48 1008.01 1006.77 1006.27 1006.44 1006.39 1006.38
1018.42 1018.40 1018.28 1018.15 1017.88 1017.41 1016.81 1016.61 1016.61 1016.56 1016.17 1015.82 1015.23 1015.04 1013.91 1013.79 1014.09 1014.28 1014.25 1013.99 1013.94 1014.28 1014.44 1014.31 1013.88 1013.24 1012.53 1011.95 1010.71 1009.77 1009.33 1009.17 1009.10 1009.19 1010.06 1009.82 1009.36 1008.78 1007.65 1007.02 1006.35 1006.18 1006.31 1006.43 1006.97
1018.08 1018.12 1017.98 1017.85 1017.62 1017.26 1016.49 1016.05 1016.45 1016.08 1015.20 1014.31 1013.89 1013.42 1012.97 1013.99 1014.25 1014.23 1014.22 1014.17 1013.82 1013.75 1013.57 1013.78 1013.16 1012.18 1011.13 1010.78 1010.53 1010.31 1010.11 1009.67 1009.39 1009.38 1009.44 1009.30 1009.14 1008.54 1007.51 1006.17 1005.99 1006.00 1006.31 1007.22 1008.15
1017.89 1017.92 1017.90 1017.72 1017.51 1017.18 1016.71 1016.15 1017.32 1017.77 1015.60 1013.53 1013.15 1013.23 1013.27 1013.49 1013.71 1014.03 1014.41 1014.06 1013.65 1012.93 1013.19 1013.60 1012.36 1011.37 1011.05 1011.35 1011.16 1010.75 1010.44 1009.97 1009.65 1009.43 1010.03 1009.40 1008.72 1007.71 1007.06 1006.08 1006.08 1006.81 1007.47 1008.62 1009.63
1017.68 1017.78 1017.75 1017.68 1017.45 1017.08 1017.03 1017.35 1017.67 1017.57 1016.22 1013.27 1013.12 1013.12 1013.38 1013.69 1013.33 1013.45 1013.95 1013.50 1013.23 1012.85 1012.59 1011.88 1011.04 1011.25 1011.24 1011.21 1011.33 1011.02 1010.78 1010.43 1010.22 1010.10 1009.87 1009.29 1008.30 1006.52 1006.12 1005.95 1006.91 1007.72 1008.75 1009.99 1011.09
1017.52 1017.55 1017.65 1017.75 1017.92 1016.99 1017.07 1017.82 1017.94 1017.84 1015.66 1013.00 1013.22 1013.25 1013.47 1013.38 1013.52 1014.19 1014.06 1013.82 1013.15 1012.52 1012.22 1011.76 1011.41 1011.62 1011.65 1011.41 1011.42 1010.90 1010.73 1010.70 1010.68 1010.92 1009.85 1009.81 1007.30 1006.73 1005.55 1005.98 1007.88 1009.41 1010.63 1011.51 1012.50
1017.37 1017.42 1017.54 1017.90 1017.15 1016.96 1017.67 1017.85 1018.09 1017.91 1015.11 1013.14 1013.35 1013.91 1013.63 1013.61 1013.92 1014.08 1014.60 1013.65 1012.84 1012.46 1012.72 1011.39 1011.64 1012.16 1011.78 1011.17 1011.30 1010.98 1011.40 1011.38 1011.23 1010.84 1010.11 1009.43 1008.44 1005.84 1005.85 1006.25 1008.00 1010.49 1011.99 1012.82 1013.56
1017.15 1017.39 1017.51 1017.58 1017.15 1017.40 1017.68 1018.08 1017.90 1017.01 1013.76 1012.97 1013.35 1013.47 1013.31 1013.30 1013.68 1014.09 1014.17 1014.15 1013.54 1012.49 1012.34 1011.32 1012.21 1011.84 1011.64 1011.75 1011.80 1011.91 1011.90 1011.54 1011.32 1011.10 1009.38 1008.06 1007.47 1005.95 1006.03 1007.14 1009.18 1011.26 1012.78 1013.88 1014.58
1017.53 1017.38 1017.64 1017.43 1017.13 1017.33 1017.34 1017.21 1016.72 1015.19 1013.40 1012.97 1013.18 1013.38 1013.30 1013.18 1013.49 1013.62 1013.52 1013.39 1012.73 1012.13 1011.08 1010.78 1011.10 1011.39 1012.17 1012.14 1012.44 1012.29 1012.08 1011.11 1010.44 1010.25 1008.32 1008.10 1007.83 1006.67 1007.42 1008.80 1010.00 1011.87 1013.45 1014.65 1015.03
1017.73 1017.29 1017.47 1017.73 1017.66 1017.70 1017.21 1017.26 1015.81 1014.01 1013.14 1013.21 1013.38 1013.21 1013.25 1013.32 1013.46 1013.57 1013.14 1012.24 1011.67 1012.33 1011.66 1010.95 1010.36 1011.41 1012.19 1012.11 1012.11 1011.98 1012.08 1012.04 1010.83 1010.15 1008.83 1008.91 1007.24 1007.07 1008.70 1010.53 1011.89 1013.01 1014.42 1015.59 1015.85
1017.61 1017.45 1017.07 1017.16 1017.60 1017.58 1017.32 1016.59 1014.88 1013.39 1012.91 1012.95 1012.90 1013.05 1012.96 1013.30 1013.56 1013.10 1012.55 1012.21 1012.10 1012.46 1012.40 1011.63 1011.08 1012.22 1012.62 1012.43 1012.77 1012.35 1012.77 1013.31 1013.04 1012.05 1011.19 1008.93 1007.60 1007.57 1009.57 1011.35 1012.74 1013.93 1014.89 1015.60 1016.15
1017.65 1018.00 1017.46 1016.96 1017.88 1017.75 1017.24 1015.48 1014.74 1013.85 1013.61 1013.68 1012.97 1012.53 1012.03 1012.14 1013.02 1013.03 1012.97 1012.62 1012.83 1013.05 1013.19 1012.73 1012.38 1012.00 1012.81 1013.02 1013.05 1012.88 1013.00 1013.74 1014.35 1013.05 1011.31 1009.12 1007.97 1007.27 1009.25 1011.09 1013.29 1014.20 1014.82 1015.57 1015.82
1018.15 1017.93 1017.18 1017.18 1018.24 1017.95 1016.68 1015.18 1014.40 1013.88 1014.04 1014.09 1013.57 1012.99 1012.50 1012.68 1012.89 1013.07 1012.73 1012.68 1013.07 1013.28 1013.91 1014.15 1014.14 1012.69 1012.99 1012.39 1012.33 1013.18 1013.22 1013.40 1013.16 1012.94 1011.47 1010.29 1008.78 1008.92 1010.14 1011.61 1013.20 1014.69 1015.52 1015.94 1016.47
1017.48 1017.49 1016.98 1017.20 1017.70 1016.85 1015.49 1014.78 1014.51 1014.32 1013.95 1013.82 1014.09 1013.89 1013.83 1013.63 1013.29 1013.30 1013.13 1013.06 1013.40 1013.85 1014.00 1014.54 1015.21 1014.24 1012.66 1012.57 1012.56 1012.96 1012.95 1013.16 1013.17 1012.65 1011.78 1010.93 1009.91 1009.77 1011.35 1012.36 1013.76 1014.76 1015.77 1016.54 1016.94
1016.87 1016.65 1017.57 1017.20 1016.25 1015.34 1015.05 1014.53 1014.40 1014.43 1014.15 1014.09 1013.84 1013.65 1013.88 1013.78 1013.95 1013.56 1013.51 1013.94 1014.33 1014.67 1014.81 1015.46 1015.94 1015.36 1013.86 1013.15 1013.46 1013.47 1013.21 1013.50 1013.44 1013.24 1011.91 1011.21 1010.00 1010.86 1012.04 1013.09 1014.26 1014.94 1015.80 1016.47 1016.98
1016.70 1016.90 1017.24 1016.85 1015.65 1015.01 1014.76 1014.15 1014.11 1014.42 1014.37 1014.54 1014.17 1014.12 1014.34 1014.19 1014.47 1013.95 1014.10 1014.66 1015.21 1015.59 1016.06 1016.26 1016.02 1015.93 1015.36 1014.14 1014.19 1014.45 1014.44 1014.54 1014.81 1013.67 1012.07 1011.10 1010.67 1011.53 1012.21 1013.10 1013.90 1014.96 1015.79 1016.26 1016.68
1016.79 1015.96 1015.60 1015.93 1015.33 1015.25 1014.78 1013.89 1014.00 1014.14 1014.58 1015.00 1014.46 1014.46 1014.71 1014.69 1014.67 1014.61 1014.94 1015.03 1015.79 1016.49 1016.69 1016.90 1016.46 1016.45 1016.05 1015.55 1015.23 1014.86 1014.80 1014.64 1014.30 1013.69 1013.20 1011.99 1012.19 1012.36 1012.86 1013.10 1013.53 1014.43 1015.70 1015.97 1016.53
1016.78 1016.78 1016.75 1015.73 1015.06 1015.15 1014.87 1014.20 1014.43 1014.49 1015.02 1015.18 1015.22 1014.90 1015.56 1015.83 1015.86 1016.23 1016.64 1016.95 1016.69 1016.77 1017.18 1017.28 1017.14 1017.07 1016.35 1016.52 1016.12 1015.28 1014.57 1013.66 1013.84 1013.51 1012.91 1012.93 1012.38 1012.56 1012.78 1014.16 1014.73 1015.29 1015.91 1016.21 1016.43
1017.67 1017.24 1016.72 1016.20 1015.68 1015.26 1014.52 1014.43 1014.89 1015.17 1015.99 1016.33 1016.37 1016.57 1016.79 1017.14 1017.69 1018.15 1018.46 1018.52 1018.36 1018.28 1018.12 1018.02 1017.85 1017.83 1016.60 1016.76 1016.13 1014.89 1013.50 1013.91 1013.36 1013.30 1013.43 1013.45 1013.81 1014.21 1014.47 1015.03 1015.31 1015.60 1015.98 1016.26 1016.33
Thickness
5703 5705 5707 5709 5710 5712 5714 5716 5718 5720 5723 5725 5727 5730 5732 5734 5738 5740 5744 5754 5752 5748 5745 5742 5740 5738 5736 5731 5731 5732 5718 5718 5726 5724 5729 5736 5725 5736 5738 5730 5736 5740 5736 5744 5744
5698 5701 5702 5704 5707 5709 5711 5713 5715 5717 5719 5722 5725 5727 5730 5731 5738 5742 5753 5750 5747 5745 5742 5736 5731 5730 5728 5724 5724 5718 5716 5722 5738 5736 5729 5732 5729 5728 5727 5731 5735 5740 5750 5750 5748
5693 5695 5698 5701 5703 5706 5708 5710 5712 5715 5717 5719 5722 5724 5726 5728 5733 5745 5747 5744 5741 5738 5740 5738 5735 5727 5720 5722 5722 5723 5712 5730 5731 5731 5730 5723 5721 5729 5720 5721 5732 5735 5744 5748 5748
5688 5691 5694 5696 5699 5702 5705 5706 5708 5711 5713 5715 5717 5720 5722 5727 5713 5739 5739 5736 5732 5732 5729 5725 5723 5716 5714 5713 5725 5705 5721 5719 5722 5722 5713 5713 5725 5719 5719 5727 5732 5737 5741 5742 5742
5683 5685 5689 5692 5694 5696 5699 5701 5704 5706 5708 5710 5712 5714 5721 5721 5724 5732 5731 5727 5724 5725 5722 5718 5714 5713 5707 5717 5711 5703 5712 5719 5717 5714 5706 5709 5712 5707 5723 5728 5738 5738 5739 5738 5739
5678 5679 5681 5684 5687 5690 5693 5696 5698 5700 5702 5704 5705 5706 5715 5708 5728 5726 5726 5722 5722 5718 5717 5716 5713 5715 5707 5706 5701 5710 5702 5707 5710 5706 5701 5696 5710 5706 5720 5730 5734 5734 5736 5738 5737
5671 5673 5675 5677 5679 5683 5687 5689 5692 5695 5697 5698 5698 5701 5706 5717 5723 5718 5716 5717 5716 5714 5709 5710 5706 5699 5704 5697 5704 5693 5685 5701 5708 5711 5696 5689 5701 5702 5721 5725 5726 5728 5733 5734 5732
5664 5666 5669 5670 5673 5676 5681 5684 5688 5690 5692 5694 5692 5693 5703 5714 5714 5711 5709 5705 5705 5703 5701 5699 5698 5692 5688 5690 5686 5680 5683 5679 5710 5701 5686 5672 5689 5712 5715 5709 5719 5724 5727 5725 5729
5656 5658 5661 5663 5666 5670 5675 5679 5681 5682 5683 5684 5686 5687 5699 5703 5701 5700 5702 5698 5693 5692 5689 5687 5685 5681 5682 5673 5671 5685 5669 5679 5687 5704 5678 5660 5667 5701 5706 5700 5710 5717 5715 5718 5718
5650 5651 5653 5655 5659 5663 5669 5672 5672 5672 5675 5676 5680 5676 5687 5692 5690 5689 5690 5690 5685 5679 5674 5673 5670 5666 5676 5671 5658 5676 5676 5678 5672 5694 5674 5670 5663 5682 5702 5704 5706 5710 5710 5710 5706
5643 5643 5645 5647 5650 5654 5660 5667 5670 5670 5671 5678 5678 5680 5687 5678 5679 5678 5679 5677 5677 5674 5665 5664 5658 5657 5678 5678 5675 5671 5662 5659 5672 5679 5669 5669 5660 5668 5683 5705 5704 5705 5702 5696 5690
5634 5635 5636 5638 5640 5644 5648 5653 5644 5640 5652 5675 5676 5671 5673 5670 5666 5667 5670 5665 5663 5663 5660 5649 5648 5669 5675 5659 5653 5655 5648 5650 5661 5669 5652 5653 5656 5673 5676 5690 5696 5689 5686 5679 5673
5625 5626 5627 5628 5630 5635 5634 5632 5629 5629 5636 5666 5665 5659 5657 5656 5659 5661 5659 5661 5655 5653 5651 5653 5662 5660 5656 5650 5643 5645 5638 5641 5640 5647 5649 5642 5645 5669 5682 5686 5676 5674 5671 5662 5653
5616 5617 5617 5617 5618 5625 5625 5617 5616 5615 5633 5654 5646 5650 5649 5650 5647 5640 5642 5642 5642 5644 5647 5645 5651 5639 5633 5633 5638 5633 5650 5641 5634 5620 5621 5628 5623 5652 5673 5668 5648 5643 5638 5632 5627
5607 5606 5606 5604 5613 5614 5607 5606 5605 5605 5607 5636 5628 5632 5635 5636 5632 5629 5628 5633 5632 5634 5628 5642 5633 5624 5624 5633 5636 5636 5628 5625 5621 5615 5615 5623 5612 5652 5662 5653 5642 5622 5613 5611 5608
5597 5595 5595 5596 5600 5599 5596 5593 5597 5601 5598 5625 5621 5619 5620 5622 5619 5617 5618 5618 5618 5620 5622 5632 5622 5625 5628 5627 5623 5617 5614 5616 5612 5607 5608 5636 5631 5645 5649 5640 5623 5608 5598 5594 5591
5583 5585 5584 5586 5592 5588 5589 5594 5592 5582 5615 5613 5609 5609 5610 5609 5603 5603 5606 5606 5614 5610 5620 5624 5619 5619 5609 5606 5603 5601 5602 5598 5601 5600 5608 5634 5612 5637 5640 5624 5618 5599 5585 5578 5577
5568 5573 5573 5572 5574 5575 5579 5574 5567 5589 5599 5605 5598 5598 5594 5597 5593 5590 5595 5605 5615 5598 5599 5598 5604 5606 5598 5600 5600 5598 5597 5583 5575 5593 5608 5593 5604 5626 5610 5594 5583 5578 5567 5555 5552
5557 5559 5564 5562 5560 5561 5566 5558 5572 5593 5597 5591 5589 5583 5587 5581 5576 5583 5592 5592 5594 5591 5577 5583 5594 5586 5581 5586 5583 5581 5571 5568 5548 5560 5553 5591 5611 5627 5590 5572 5566 5557 5550 5542 5534
5544 5543 5549 5551 5544 5547 5546 5557 5566 5578 5573 5570 5569 5583 5584 5582 5570 5570 5566 5582 5574 5573 5569 5570 5559 5587 5571 5570 5570 5564 5565 5541 5532 5524 5535 5578 5589 5600 5605 5567 5548 5541 5537 5528 5522
5524 5525 5539 5536 5529 5531 5533 5551 5563 5568 5560 5553 5557 5561 5571 5564 5558 5552 5558 5567 5563 5558 5551 5544 5533 5564 5556 5564 5561 5547 5540 5542 5544 5539 5532 5535 5561 5591 5565 5553 5537 5518 5506 5502 5496
5518 5522 5527 5521 5524 5529 5540 5549 5547 5545 5546 5544 5542 5538 5536 5539 5536 5537 5540 5546 5549 5542 5535 5535 5508 5515 5549 5558 5550 5537 5537 5537 5521 5514 5529 5521 5521 5572 5538 5529 5510 5498 5486 5477 5472
5511 5516 5503 5505 5516 5528 5534 5534 5532 5529 5529 5529 5530 5533 5533 5530 5517 5530 5532 5533 5528 5525 5518 5511 5491 5493 5518 5539 5524 5513 5524 5519 5520 5514 5510 5506 5518 5535 5509 5494 5482 5479 5472 5464 5454
5496 5495 5493 5490 5512 5518 5518 5523 5520 5517 5513 5514 5519 5519 5515 5514 5515 5516 5518 5513 5507 5506 5493 5491 5495 5492 5490 5509 5512 5493 5495 5493 5480 5484 5497 5503 5510 5516 5505 5485 5478 5466 5455 5447 5440
5475 5491 5494 5485 5496 5498 5503 5515 5509 5504 5503 5502 5505 5504 5502 5498 5503 5503 5503 5500 5494 5481 5482 5476 5468 5479 5477 5483 5485 5482 5475 5481 5480 5486 5474 5488 5479 5487 5481 5474 5463 5448 5434 5428 5419
5460 5462 5461 5481 5489 5486 5484 5496 5492 5492 5485 5487 5488 5491 5486 5480 5481 5475 5474 5468 5474 5475 5466 5462 5443 5451 5442 5455 5452 5445 5460 5472 5468 5470 5471 5467 5461 5470 5456 5426 5417 5412 5405 5401 5397
5431 5436 5444 5455 5458 5465 5478 5480 5476 5476 5458 5456 5462 5459 5456 5458 5444 5438 5435 5436 5438 5436 5436 5434 5427 5420 5416 5436 5430 5414 5451 5443 5451 5458 5450 5434 5423 5398 5403 5393 5390 5384 5379 5373 5372